This is the latest recevied weather packets stored in our database for station/object EA1IDU-11. If no packets are shown the sender has not sent any weather packets the latest 10 day(s).
| Time | Temp. | Humidity | Pressure | Rain* | Wind** | Luminosity | Snow |
|---|---|---|---|---|---|---|---|
| 1778078602 | 23.89° C | 38% | 1021 hPa | - | - | - | - |
| 1778077702 | 22.78° C | 38% | 1021.2 hPa | - | - | - | - |
| 1778076802 | 22.78° C | 40% | 1021.3 hPa | - | - | - | - |
| 1778075902 | 21.67° C | 41% | 1021.4 hPa | - | - | - | - |
| 1778075002 | 21.67° C | 42% | 1021.7 hPa | - | - | - | - |
| 1778074102 | 21.67° C | 43% | 1021.8 hPa | - | - | - | - |
| 1778073202 | 21.11° C | 44% | 1021.8 hPa | - | - | - | - |
| 1778072302 | 20.56° C | 45% | 1021.9 hPa | - | - | - | - |
| 1778071402 | 22.22° C | 45% | 1022 hPa | - | - | - | - |
| 1778070502 | 22.22° C | 49% | 1022 hPa | - | - | - | - |
| 1778069601 | 20.56° C | 49% | 1022.2 hPa | - | - | - | - |
| 1778068701 | 20° C | 50% | 1022.2 hPa | - | - | - | - |
| 1778067801 | 21.67° C | 49% | 1022.4 hPa | - | - | - | - |
| 1778066901 | 21.67° C | 51% | 1022.4 hPa | - | - | - | - |
| 1778066001 | 20° C | 52% | 1022.4 hPa | - | - | - | - |
| 1778065101 | 20° C | 53% | 1022.4 hPa | - | - | - | - |
| 1778064201 | 20.56° C | 53% | 1022.5 hPa | - | - | - | - |
| 1778063301 | 21.67° C | 54% | 1022.6 hPa | - | - | - | - |
| 1778062401 | 20.56° C | 55% | 1022.6 hPa | - | - | - | - |
| 1778061500 | 20° C | 56% | 1022.6 hPa | - | - | - | - |
| 1778060600 | 18.89° C | 58% | 1022.8 hPa | - | - | - | - |
| 1778059700 | 18.33° C | 59% | 1022.7 hPa | - | - | - | - |
| 1778058800 | 19.44° C | 60% | 1022.6 hPa | - | - | - | - |
| 1778057900 | 20° C | 62% | 1022.6 hPa | - | - | - | - |
| 1778057000 | 20° C | 62% | 1022.6 hPa | - | - | - | - |
* Rain since midnight (hover to see other rain measurements)
** Current wind speed in m/s (hover to see current wind gust speed)